Regional Weather Roundup
Issued by NWS San Angelo, TX

Home | Current Version | Previous Version | Text Only | Print | Product List | Glossary On
Versions: 1 2 3 4 5 6 7 8 9 10 11 12 13 14 15 16 17 18 19 20 21 22 23 24 25 26 27 28 29 30 31 32 33 34 35 36 37 38 39 40 41 42 43 44 45 46 47 48 49 50
000
ASUS44 KSJT 190810
RWRSJT
WEST CENTRAL TEXAS REGIONAL WEATHER ROUNDUP
NATIONAL WEATHER SERVICE SAN ANGELO TX
200 AM CST FRI DEC 19 2014

NOTE: "FAIR" INDICATES FEW OR NO CLOUDS BELOW 12,000 FEET WITH NO
SIGNIFICANT WEATHER AND/OR OBSTRUCTIONS TO VISIBILITY.

TXZ049-054-064>066-071>073-076>078-098-099-113-114-127-128-139-140-
154-155-168>170-190900
...LOCATIONS ACROSS WEST CENTRAL TEXAS...

CITY           SKY/WX    TMP DP  RH WIND       PRES   REMARKS
SAN ANGELO     CLOUDY    49  44  83 NE8       30.09F
ABILENE        LGT RAIN  43  40  89 N9        30.12F WCI  38
DYESS AFB      CLOUDY    43  37  82 N13       30.12F WCI  36
JUNCTION       LGT RAIN  51  50  96 E14       30.07S FOG
SWEETWATER     CLOUDY    40  38  90 N10       30.16F WCI  34
BROWNWOOD      CLOUDY    46  41  81 E7        30.12R
COLEMAN        CLOUDY    47  45  93 CALM      30.14R
SONORA         LGT RAIN  52  48  87 N3        30.11S
OZONA          FAIR      48  41  76 N9        30.10R
BRADY          CLOUDY    46  46 100 NE8       30.09  FOG
$$

TEXAS PANHANDLE/OKLAHOMA PANHANDLE

CITY           SKY/WX    TMP DP  RH WIND       PRES   REMARKS
AMARILLO       CLOUDY    36  34  92 S7        30.14F WCI  30
BORGER         CLOUDY    37  32  82 SW5       30.16F WCI  33
CANADIAN       CLOUDY    38  38  98 E3        30.17F FOG
DALHART        CLOUDY    32  30  92 S3        30.14S FOG
DUMAS          CLOUDY    32  30  90 S3        30.13F
GUYMON         NOT AVBL
HEREFORD       DRIZZLE   37  36  96 SE7       30.13F WCI  31
PAMPA          CLOUDY    37  34  89 CALM      30.14F
PERRYTON       CLOUDY    36  35  96 SE3       30.16F
$$

SOUTHERN PANHANDLE/SOUTH PLAINS/ROLLING PLAINS

CITY           SKY/WX    TMP DP  RH WIND       PRES   REMARKS
LUBBOCK        LGT RAIN  39  37  92 SE9       30.12F WCI  33
SNYDER         CLOUDY    39  36  88 NE13      30.13F WCI  32
CHILDRESS      CLOUDY    41  38  89 E6        30.17  WCI  37
SEMINOLE       PTSUNNY   38  35  89 E8        30.12F WCI  32
$$

PERMIAN BASIN

CITY           SKY/WX    TMP DP  RH WIND       PRES   REMARKS
MIDLAND        MOCLDY    42  37  82 N14       30.12S WCI  35
ODESSA         MOCLDY    43  38  82 NE15      30.13F WCI  36
WINK           CLOUDY    51  40  65 SW5       30.07F
$$

FAR WEST/SOUTHWEST MOUNTAINS/TRANS PECOS

CITY           SKY/WX    TMP DP  RH WIND       PRES   REMARKS
ALPINE         SUNNY     34  29  81 CALM      30.18S
DRYDEN           N/A     54  39  57 N6        30.04F
EL PASO        MOCLDY    43  39  86 CALM      30.13S
FORT STOCKTON  PTCLDY    43  31  62 W8        30.09S WCI  38
GUADALUPE PASS NOT AVBL
MARFA          CLEAR     32  25  74 N5        30.14F WCI  27
PECOS          MOSUNNY   44  33  64 NW6       30.10R
$$

DALLAS/FORT WORTH METROPLEX

CITY           SKY/WX    TMP DP  RH WIND       PRES   REMARKS
DFW AIRPORT    CLOUDY    46  42  86 NE9       30.15S
FTW MEACHAM    CLOUDY    46  43  89 NE10      30.14F FOG
DAL-EXECUTIVE  CLOUDY    48  43  82 NE7       30.15R
GRAND PRAIRIE  CLOUDY    47  46  96 NE6       30.17R
ADDISON        CLOUDY    46  46 100 NE7       30.17S
MESQUITE       CLOUDY    46  44  93 N5        30.17S
LANCASTER      CLOUDY    46  43  89 NE7       30.17S
$$

NORTH CENTRAL TEXAS

CITY           SKY/WX    TMP DP  RH WIND       PRES   REMARKS
SHRMAN/DENISON CLOUDY    45  45 100 CALM      30.17F FOG
GAINESVILLE    CLOUDY    43  42  97 NE7       30.18F FOG     WCI  39
BRIDGEPORT     CLOUDY    45  45 100 NE7       30.17F
DENTON         CLOUDY    45  43  93 NE6       30.16F FOG
WAXAHACHIE     CLOUDY    46  46 100 NE8       30.16S FOG
GRANBURY       CLOUDY    47  44  89 N5        30.15F
$$

WESTERN NORTH TEXAS

CITY           SKY/WX    TMP DP  RH WIND       PRES   REMARKS
WICHITA FALLS  CLOUDY    43  41  93 N8        30.17F WCI  38
VERNON         CLOUDY    43  38  80 E7        30.17F WCI  39
BRECKENRIDGE   CLOUDY    46  45  93 N5        30.13S
COMANCHE       CLOUDY    46  44  91 E6        30.12F
$$

CENTRAL AND SOUTH CENTRAL TEXAS

CITY           SKY/WX    TMP DP  RH WIND       PRES   REMARKS
AUSTIN/BERGSTM TSTM      50  50 100 N8        30.06F FOG
WACO           CLOUDY    48  45  89 N7        30.13R
HILLSBORO      CLOUDY    47  44  88 NE14      30.12F FOG
TEMPLE         CLOUDY    46  43  87 N13       30.08F
KILLEEN-GRAY   CLOUDY    46  46 100 N12       30.10S FOG
FORT HOOD      CLOUDY    46  46 100 NE10      30.09F FOG
GEORGETOWN     CLOUDY    48  46  93 N12G17    30.07F
LAGO VISTA     HVY RAIN  48  46  95 N13       30.06F
SAN MARCOS     CLOUDY    52  48  87 N14       30.06S
NEW BRAUNFELS  LGT RAIN  53  32  44 NE10      30.04F
RANDOLPH AFB   CLOUDY    54  52  94 N13       30.03F
SAN ANTONIO    LGT RAIN  54  51  90 N10       30.03F FOG
STINSON        CLOUDY    55  53  93 N9        30.01F
PLEASANTON     NOT AVBL
LA GRANGE      CLOUDY    55  54  97 N8        30.02F
GIDDINGS       HVY RAIN  51  50  97 N7        30.09F
$$

EAST TEXAS

CITY           SKY/WX    TMP DP  RH WIND       PRES   REMARKS
PARIS          CLOUDY    45  41  87 E5        30.18R
CLARKSVILLE    NOT AVBL
TYLER          CLOUDY    48  46  93 NE7       30.13F FOG
LONGVIEW       CLOUDY    49  46  90 N7        30.12F FOG
PALESTINE      CLOUDY    49  48  96 N7        30.12F FOG
NACOGDOCHES    CLOUDY    50  46  87 NE5       30.09F
$$

TEXAS HILL COUNTRY AND EDWARDS PLATEAU

CITY           SKY/WX    TMP DP  RH WIND       PRES   REMARKS
LLANO          CLOUDY    48  46  93 CALM      30.13S
HORSESHOE BAY  CLOUDY    49  49 100 N6        30.08F FOG
KERRVILLE      CLOUDY    51  49  93 NE7       30.05F FOG
FREDERICKSBRG  CLOUDY    49  47  92 NE7       30.06F
ROCKSPRINGS    CLOUDY    57  55  94 E3        30.06S
HONDO          CLOUDY    58  56  93 NE10      30.03F
UVALDE         CLOUDY    55  54  94 E7        30.02S
DEL RIO        CLOUDY    61  56  83 CALM      30.01S
$$

SOUTHEAST TEXAS

CITY           SKY/WX    TMP DP  RH WIND       PRES   REMARKS
COLLEGE STN    HVY RAIN  52  52 100 N9        30.08R FOG
CALDWELL       RAIN      50  50 100 N8        30.09F
CROCKETT       CLOUDY    54  54 100 NE7       30.13R
BRENHAM        TSTM      56  55  96 N8        30.04F
HUNTSVILLE     HVY RAIN  53  52  96 NE5       30.07F FOG
CONROE         LGT RAIN  55  54  96 NE10      30.01F
HOUSTON BUSH   TSTM      57  57 100 NE10      30.01F FOG
HOUSTON HOBBY  LGT RAIN  59  57  94 N15       30.03R FOG
PERLAND        RAIN      60  59  96 NE9       30.04R FOG
WHARTON        HVY RAIN  61  61  97 N8        30.01S
$$

THE UPPER TEXAS COAST

CITY           SKY/WX    TMP DP  RH WIND       PRES   REMARKS
ORANGE         TSTM      56  55  98 NW9       30.08R
PORT ARTHUR    RAIN      57  56  96 N13       30.03R FOG
GALVESTON      CLOUDY    62  62 100 E12       30.01R
ANGLETON       CLOUDY    62  62 100 NE5       30.00S
BAY CITY         N/A     64  64 100 E3        29.99S FOG
$$

TEXAS COASTAL BEND, RIO GRANDE PLAINS DEEP SOUTH TEXAS

CITY           SKY/WX    TMP DP  RH WIND       PRES   REMARKS
VICTORIA       CLOUDY    65  63  93 NE6       29.99F FOG
BEEVILLE       RAIN      62  62 100 N9        29.98S
ROCKPORT       CLOUDY    69  67  93 S5        29.97F
PORT ARANSAS   PTSUNNY   66  65  96 S6        29.96F
PORT LAVACA    CLOUDY    65  64  98 E7        29.98F FOG
CORPUS CHRISTI MOCLDY    68  67  96 S9        29.95F
KINGSVILLE NAS CLOUDY    69  69 100 SE5       29.95F
COTULLA        CLOUDY    59  58  96 E9        29.99F FOG
LAREDO         NOT AVBL
BROWNSVILLE    CLOUDY    70  67  90 S6        29.97R
PORT ISABEL    CLOUDY    70  67  90 S5        29.96S
HEBBRONVILLE   CLOUDY    63  63  97 W3        29.98F VSB 3/4
MCALLEN        CLOUDY    62  61  96 CALM      29.97F FOG
WESLACO        CLOUDY    64  62  94 CALM      29.96F
FALFURRIAS     CLOUDY    68  67  96 CALM      29.97S
EDINBURG       CLOUDY    66  64  91 SW5       29.97F
$$



USA.gov is the U.S. government's official web portal to all federal, state and local government web resources and services.